Wind_Speed
2 4 5 5 5 4 4 4 6 4 6 7 4 3 7 12 5 11 13 13 12 14 14 18 21 25 23 23 25 22 22 18 18 16 19 18 16 14 10 8 7 6 3 5
6 2 5 3 4 2 3 6 3 2 3 3 4 3 4 11 5 6 16 13 16 8 8 16 20 22 26 26 27 24 24 21 18 16 18 18 17 14 15 11 8 6 6 5
5 2 7 3 3 5 3 5 4 4 3 2 4 2 5 6 4 7 6 16 14 17 14 12 19 23 25 28 30 30 27 24 19 18 18 16 17 11 11 11 11 10 9 6
2 2 3 3 3 5 4 5 9 10 2 1 5 4 4 9 10 7 6 10 14 16 13 11 18 21 26 29 29 30 26 26 22 20 19 21 20 15 14 13 12 11 9 8
6 3 4 3 7 8 4 9 8 3 4 2 3 3 5 9 9 12 8 10 13 15 16 16 21 25 29 26 30 29 26 28 24 22 18 21 19 18 17 14 11 10 8 7
7 2 4 5 1 6 12 8 7 5 3 2 1 7 4 6 16 20 6 9 12 12 14 16 19 17 19 22 28 30 28 29 24 23 21 20 20 20 18 18 15 11 10 8
5 2 1 5 8 7 6 6 3 3 2 0 4 3 9 9 7 20 16 13 11 14 14 12 15 20 21 26 30 32 30 30 27 24 23 22 20 21 19 20 18 14 12 11
2 4 7 6 7 8 6 6 5 6 5 3 2 5 5 4 5 16 17 15 13 14 15 17 23 25 26 27 30 31 33 32 28 25 23 22 22 22 19 19 18 17 14 14
2 4 4 5 4 10 5 4 4 6 3 3 1 5 6 7 13 8 16 16 17 15 18 19 24 26 25 27 31 35 34 34 31 27 24 24 23 23 22 19 18 20 17 15
3 2 3 5 3 2 7 6 1 2 4 2 3 3 5 10 13 8 13 19 19 18 18 17 23 28 28 29 32 33 35 36 33 28 25 25 24 24 21 19 18 19 18 16
2 2 6 2 4 2 1 1 2 3 3 5 3 5 4 4 10 9 10 13 16 16 17 18 22 28 29 28 30 33 33 34 32 29 26 23 22 23 21 20 17 15 16 16
1 4 2 4 3 4 1 1 4 4 3 2 3 4 7 7 2 3 0 6 8 14 17 17 24 26 25 28 28 30 32 32 32 29 27 25 21 21 21 18 17 17 18 16
2 1 3 6 6 3 5 3 1 2 3 5 4 4 4 5 6 5 2 3 5 10 11 11 13 22 24 27 30 32 34 35 33 30 29 27 23 21 21 19 16 16 18 18
5 2 5 5 5 2 1 4 2 2 3 3 3 2 2 5 5 6 5 5 1 8 10 8 9 16 24 26 29 29 32 34 34 31 29 29 27 25 22 20 17 14 15 17
4 1 2 5 4 1 1 1 4 2 2 4 2 3 3 3 4 4 4 5 3 4 9 11 10 9 18 23 26 29 31 33 34 32 30 30 27 25 22 20 18 16 15 17
2 1 2 2 2 5 1 1 6 4 3 4 3 2 1 3 2 5 7 6 4 4 3 7 7 10 16 22 26 29 30 32 34 33 32 28 25 24 23 20 19 17 16 16
1 3 2 4 3 5 5 2 1 4 1 3 3 3 3 3 3 4 5 6 6 4 6 7 3 4 7 15 18 19 19 26 26 28 28 25 22 21 20 17 16 14 12 15
4 3 2 3 3 2 3 3 3 3 4 2 4 3 5 5 5 4 6 6 6 6 6 7 10 11 9 10 9 12 15 17 18 19 18 12 7 12 14 14 13 10 8 9
2 4 2 3 2 4 2 4 4 4 3 4 7 7 6 6 2 4 8 6 5 6 8 6 8 13 16 17 18 20 19 17 15 13 10 9 10 10 13 13 13 9 9 9
4 4 4 1 3 6 5 2 3 3 2 8 7 9 8 4 1 0 4 6 7 9 9 7 10 12 17 18 18 17 14 11 3 3 6 8 12 12 12 12 11 11 12 12
3 3 3 3 3 6 4 4 3 3 5 5 6 6 6 3 2 2 3 6 8 9 10 9 13 12 8 5 6 8 9 16 11 10 12 10 8 12 13 11 10 13 12 13
5 4 3 3 2 5 2 3 6 5 3 4 3 3 7 9 7 6 6 7 9 10 12 12 14 13 7 5 7 10 7 7 11 9 9 7 7 10 10 9 11 10 10 12
2 5 3 7 5 4 4 4 5 4 3 3 5 8 6 6 7 6 5 7 10 11 11 14 15 16 16 10 7 10 6 8 8 7 9 11 12 13 10 10 12 12 9 11
3 4 2 1 2 4 2 4 3 3 3 7 6 9 7 8 7 9 4 5 8 11 12 12 17 17 17 17 17 12 8 8 12 13 11 11 11 13 11 11 10 10 10 8
4 5 5 3 4 3 3 3 2 2 5 10 6 4 5 9 7 7 2 4 8 11 10 11 15 16 15 13 13 13 13 12 15 15 13 11 11 12 12 11 9 8 6 4
5 7 5 6 8 5 6 5 3 6 6 6 11 6 5 6 7 8 6 6 6 8 9 9 10 13 12 12 12 11 10 10 13 14 12 11 11 12 11 11 11 9 6 4
Wind_Direction
12 89 198 180 190 141 124 92 87 77 32 20 360 155 193 206 231 204 187 183 190 194 199 190 195 199 198 194 193 191 185 178 173 171 176 192 198 188 187 171 193 185 150 162
33 231 217 164 169 152 124 123 100 105 124 116 272 235 175 202 249 265 194 185 197 170 175 186 185 192 200 198 199 193 189 183 180 175 175 182 189 195 192 188 198 202 179 170
136 224 122 157 154 152 197 138 165 146 218 156 298 273 162 202 197 268 203 192 187 184 185 183 181 190 202 205 203 199 194 190 188 185 185 190 192 188 188 195 196 190 182 169
218 285 194 162 190 145 215 196 122 134 129 84 78 300 213 183 205 224 209 194 197 192 190 173 183 188 198 208 206 204 201 195 189 190 197 191 185 187 199 198 190 188 187 179
259 234 185 187 209 162 171 115 108 118 83 57 85 307 268 166 209 223 213 200 199 190 184 179 191 196 200 201 206 206 202 196 189 187 192 190 187 193 200 199 201 198 199 193
242 253 170 192 359 147 120 91 52 65 51 71 242 200 270 184 214 205 204 211 194 184 186 192 189 196 199 197 205 205 203 198 197 191 191 193 194 198 203 202 206 214 212 213
323 259 64 113 78 4 87 84 46 24 42 231 286 225 266 272 198 199 203 204 194 188 182 174 176 184 197 199 203 207 204 201 203 201 199 197 203 205 204 204 209 217 219 219
75 324 167 169 172 177 180 136 156 165 188 208 78 228 250 239 190 199 202 187 191 191 186 183 186 190 189 199 202 206 206 206 203 208 211 206 205 203 206 211 217 222 226 230
89 290 282 225 150 142 213 216 201 112 320 112 243 296 301 247 265 200 189 181 189 191 188 189 187 191 190 193 202 206 208 208 209 210 215 212 209 207 210 217 226 231 233 233
214 325 260 288 114 350 151 164 144 18 134 200 243 270 274 225 225 232 192 199 200 189 189 188 187 189 190 195 201 206 214 212 212 213 212 212 212 214 219 221 230 225 227 233
117 99 291 347 13 209 72 170 20 125 129 163 180 249 312 258 217 203 206 225 208 183 187 185 187 191 189 190 199 203 210 213 215 217 216 214 215 216 214 222 227 230 224 220
41 137 272 226 275 265 95 85 154 142 221 238 178 279 347 343 29 104 259 210 185 178 180 185 182 183 180 184 192 202 208 215 218 218 217 217 218 219 221 227 236 227 229 231
176 12 6 354 355 7 58 352 41 98 69 198 153 277 2 345 32 41 75 121 146 159 168 176 172 178 179 184 189 199 209 215 219 217 217 217 220 226 226 230 232 233 234 229
92 129 155 199 230 193 81 352 12 140 134 172 231 155 313 343 7 17 16 360 155 142 143 148 173 185 180 189 189 195 208 213 215 215 216 215 213 220 222 229 235 237 232 233
88 226 241 264 249 142 129 291 5 85 161 188 33 126 234 287 321 341 337 2 21 161 155 162 165 184 175 182 194 202 209 212 216 215 213 216 215 215 221 225 236 240 239 237
16 229 328 280 351 213 186 194 122 48 331 263 136 126 23 320 347 6 8 5 26 12 238 172 162 172 187 193 195 202 207 214 215 213 214 212 211 215 222 225 235 238 236 233
94 120 73 269 10 334 297 310 10 142 204 268 221 196 157 116 68 5 354 17 22 41 65 29 63 150 179 197 198 196 200 209 207 205 206 207 204 212 215 212 211 227 236 238
142 104 101 234 6 207 251 276 299 134 120 102 119 152 159 133 100 57 23 21 20 28 84 111 113 100 114 115 135 153 171 177 173 172 158 162 178 210 211 216 213 218 252 261
44 122 96 174 184 287 297 199 202 230 143 182 161 154 147 146 110 54 36 36 21 9 9 45 109 123 129 138 149 140 142 141 158 164 163 222 220 245 220 209 212 220 243 251
64 68 123 137 178 209 233 154 140 108 273 186 189 163 184 181 136 137 30 41 39 36 33 50 110 108 121 118 121 127 138 142 89 316 156 186 238 217 200 197 207 223 233 220
353 359 154 158 241 294 247 153 132 122 236 133 171 161 178 164 113 104 76 66 51 51 56 85 125 123 122 140 139 156 166 154 167 163 135 129 153 180 185 195 207 209 205 207
190 157 206 106 90 263 17 114 156 227 310 76 66 93 125 123 110 89 57 53 52 54 54 75 85 93 102 100 145 132 131 128 140 161 162 129 155 159 152 145 151 160 172 176
262 186 188 179 218 247 247 241 257 209 146 150 107 121 145 138 115 82 61 64 54 52 60 76 77 73 73 73 92 101 96 132 152 160 145 154 158 148 147 147 144 147 159 166
229 173 182 50 266 247 282 284 251 308 178 124 124 139 152 125 93 87 92 87 83 75 75 81 82 72 69 80 87 88 95 134 146 143 145 137 131 120 124 130 135 143 149 168
201 135 164 257 275 292 251 249 295 83 106 106 103 104 95 112 109 122 130 92 104 97 88 98 104 101 90 90 85 83 88 98 102 103 98 100 111 113 112 107 109 111 109 167
190 179 162 214 200 176 191 209 166 133 123 130 124 104 94 129 137 144 144 142 130 112 112 108 101 97 95 93 91 90 99 102 110 108 108 109 102 98 96 100 102 100 90 82
Height
784 798 806 801 797 796 801 807 814 814 813 814 816 814 809 808 810 811 810 812 815 816 817 822 826 828 832 836 839 842 843 846 849 851 854 858 861 864 865 867 869 870 872 874
798 804 791 786 791 792 796 809 820 817 809 814 818 814 810 808 811 808 806 809 811 817 818 820 824 827 830 834 838 842 843 845 849 851 854 857 860 864 865 868 869 870 873 874
801 789 782 785 790 797 800 805 814 812 811 811 812 819 816 812 813 807 803 801 806 810 814 816 821 825 829 832 835 839 843 846 849 851 853 857 860 863 865 867 869 871 872 874
790 781 784 789 794 794 807 790 795 810 818 829 811 840 821 812 813 811 804 804 804 806 810 815 819 822 825 829 835 838 843 846 848 850 852 855 857 860 864 866 868 870 872 873
795 783 785 794 789 786 797 789 798 806 818 823 827 838 816 809 814 808 805 803 801 802 805 810 814 816 821 828 832 836 840 844 847 849 851 853 856 858 862 865 868 870 871 873
787 773 778 781 779 780 785 801 812 817 826 840 831 836 823 815 801 796 800 799 797 799 802 808 813 818 822 827 831 834 837 841 846 848 850 853 855 857 859 863 866 868 870 872
794 782 778 776 793 789 797 817 852 852 848 848 825 831 809 787 782 784 791 794 793 794 799 806 812 816 819 822 826 831 835 838 842 846 848 851 854 856 858 860 863 866 868 870
816 812 789 776 787 795 805 810 840 849 852 839 819 825 801 773 769 773 776 784 788 791 794 799 804 809 814 818 822 826 830 835 839 843 845 849 852 854 856 859 862 864 866 868
811 803 774 770 769 775 800 810 794 821 822 825 820 809 786 775 769 769 771 778 783 786 788 792 799 805 811 815 818 821 826 832 836 839 843 846 850 852 854 857 859 861 864 866
794 809 779 771 766 770 784 783 806 809 830 835 825 823 809 780 773 769 773 770 770 775 781 788 793 799 804 810 814 818 822 826 832 837 840 843 846 850 853 855 856 857 860 862
792 805 795 778 786 786 789 794 795 797 805 828 831 813 778 773 767 767 769 765 764 770 777 782 788 793 800 805 811 814 819 823 828 833 838 841 844 847 850 852 853 855 856 858
794 812 813 791 779 780 777 786 796 810 807 812 808 799 780 776 766 764 765 763 760 765 771 777 781 789 797 802 808 812 817 821 825 829 833 837 841 844 847 849 852 853 855 856
790 815 824 804 795 784 790 788 794 804 801 808 807 797 779 779 776 772 771 766 763 766 770 777 783 787 791 797 802 808 812 815 821 826 830 834 838 842 844 847 849 851 852 854
789 816 813 823 806 796 794 792 792 800 808 805 797 798 789 785 783 778 776 773 768 766 769 774 782 785 786 793 796 802 808 811 816 821 826 829 833 838 841 845 847 849 850 851
796 807 806 802 797 792 795 796 792 794 798 797 796 797 791 791 788 783 779 775 772 770 770 772 778 784 786 790 795 799 804 807 812 817 821 825 830 834 838 841 845 846 847 849
803 809 807 799 793 794 799 797 792 794 795 795 794 796 789 789 786 785 781 778 777 774 772 771 775 780 784 787 789 794 798 803 807 812 816 821 826 831 834 837 841 843 844 846
804 812 818 815 805 808 810 798 796 791 793 799 799 794 789 792 789 787 785 783 778 776 778 779 779 781 784 787 790 794 798 801 805 809 813 818 821 826 830 833 836 839 841 843
807 814 822 820 811 822 800 792 789 792 791 794 795 793 789 789 789 790 788 785 783 781 780 782 783 785 786 788 792 795 798 803 806 811 814 817 821 824 826 830 832 836 838 841
808 814 825 824 826 813 795 790 793 794 790 788 791 786 786 789 789 790 790 790 788 787 785 785 785 785 786 787 791 796 800 803 807 811 808 816 817 818 827 829 831 833 836 838
809 814 815 828 817 819 798 784 781 786 803 781 783 782 786 789 797 795 792 792 791 790 789 788 789 789 790 793 795 796 798 802 803 803 800 812 817 822 825 827 828 830 833 835
819 821 818 824 821 808 790 783 783 807 800 775 776 780 786 790 795 795 793 793 793 793 791 791 791 793 795 797 798 801 803 795 802 808 812 814 815 819 822 823 824 829 831 834
814 821 822 825 823 813 787 786 798 790 781 779 782 785 786 788 793 795 795 795 795 796 796 795 794 797 799 798 800 802 806 800 802 808 810 811 820 821 822 823 825 827 830 832
817 809 812 812 808 792 788 787 782 781 778 780 783 786 789 789 791 794 798 796 799 799 799 799 799 798 798 799 801 803 806 807 809 810 814 817 820 822 823 823 823 825 829 832
800 803 804 801 790 787 782 780 781 777 775 778 783 786 788 790 788 793 804 803 803 803 803 803 803 804 803 805 809 811 810 810 811 815 819 820 823 822 825 826 827 829 830 836
796 799 801 799 788 785 780 780 780 779 778 779 784 788 791 792 795 801 806 804 805 807 808 809 809 810 809 812 814 814 814 814 815 818 819 823 824 825 826 828 830 831 833 836
789 788 794 794 779 780 778 774 777 778 781 783 784 790 795 797 800 802 805 807 808 808 809 811 812 812 814 817 817 817 817 818 820 824 824 827 827 828 828 830 832 833 835 836